DW5459 Weather Reports


time (UTC)temp
C
wind
direction
speed
KPH
gust
KPH
rain 1hr
cm
rain 24hr
cm
rain mn
cm
humidity
%
barometer
mb
20260507155520 8 332 16.1 22.5 0.00 0.00 0.00 43
20260507155036 8 294 14.5 25.7 0.00 0.00 0.00 43
20260507154531 8 311 12.9 25.7 0.00 0.00 0.00 43
20260507154510 8 317 14.5 25.7 0.00 0.00 0.00 43 1013.4
20260507154024 8 284 14.5 20.9 0.00 0.00 0.00 43
20260507153539 8 296 12.9 20.9 0.00 0.00 0.00 44
20260507153052 7 288 9.7 19.3 0.00 0.00 0.00 46 1013.4
20260507153028 7 290 11.3 19.3 0.00 0.00 0.00 46
20260507152521 7 313 14.5 20.9 0.00 0.00 0.00 46
20260507152018 7 308 12.9 20.9 0.00 0.00 0.00 47
20260507151616 7 277 14.5 20.9 0.00 0.00 0.00 47 1013.5
20260507151533 7 286 14.5 20.9 0.00 0.00 0.00 47
20260507151027 7 306 11.3 20.9 0.00 0.00 0.00 49
20260507150523 7 284 14.5 19.3 0.00 0.00 0.00 49
20260507150054 6 288 9.7 19.3 0.00 0.00 0.00 52 1013.6
20260507150037 6 286 9.7 19.3 0.00 0.00 0.00 52
20260507145550 6 289 11.3 17.7 0.00 0.00 0.00 54
20260507145024 6 331 8.0 11.3 0.00 0.00 0.00 59
20260507144639 5 332 4.8 11.3 0.00 0.00 0.00 59 1013.6
20260507144539 5 332 6.4 11.3 0.00 0.00 0.00 59
20260507144033 5 327 8.0 12.9 0.00 0.00 0.00 61
20260507143529 5 323 9.7 12.9 0.00 0.00 0.00 62
20260507143047 5 291 8.0 11.3 0.00 0.00 0.00 62 1013.6
20260507143025 5 291 8.0 11.3 0.00 0.00 0.00 63
20260507142516 5 313 4.8 14.5 0.00 0.00 0.00 64
20260507142031 4 337 6.4 14.5 0.00 0.00 0.00 65
20260507141610 4 321 8.0 12.9 0.00 0.00 0.00 66 1013.7
20260507141523 4 325 9.7 12.9 0.00 0.00 0.00 66
20260507141018 4 302 11.3 12.9 0.00 0.00 0.00 68
20260507140531 3 322 8.0 12.9 0.00 0.00 0.00 71
20260507140042 3 329 6.4 12.9 0.00 0.00 0.00 72 1013.5
20260507140028 3 329 8.0 12.9 0.00 0.00 0.00 72
20260507135524 3 321 9.7 11.3 0.00 0.00 0.00 72
20260507135018 3 331 8.0 11.3 0.00 0.00 0.00 71
20260507134602 3 328 8.0 12.9 0.00 0.00 0.00 70 1013.5
20260507134534 3 329 8.0 12.9 0.00 0.00 0.00 70
20260507134042 3 285 8.0 12.9 0.00 0.00 0.00 70
20260507133534 3 286 9.7 14.5 0.00 0.00 0.00 70
20260507133102 3 286 9.7 12.9 0.00 0.00 0.00 70 1013.6
20260507133028 3 284 9.7 12.9 0.00 0.00 0.00 70
20260507132523 3 284 6.4 12.9 0.00 0.00 0.00 70
20260507132039 3 290 8.0 12.9 0.00 0.00 0.00 70
20260507131629 2 292 6.4 11.3 0.00 0.00 0.00 71 1013.5
20260507131553 3 295 8.0 11.3 0.00 0.00 0.00 71
20260507131027 2 299 6.4 11.3 0.00 0.00 0.00 73
20260507130541 2 274 8.0 9.7 0.00 0.00 0.00 76
20260507130126 2 273 3.2 9.7 0.00 0.00 0.00 78 1013.5
20260507125533 2 273 4.8 8.0 0.00 0.00 0.00 78
20260507125029 2 273 6.4 9.7 0.00 0.00 0.00 78
20260507124614 1 273 6.4 9.7 0.00 0.00 0.00 78 1013.5
20260507124544 2 273 8.0 9.7 0.00 0.00 0.00 78
20260507124017 1 273 6.4 8.0 0.00 0.00 0.00 80
20260507123533 1 273 4.8 6.4 0.00 0.00 0.00 81
20260507123115 1 273 3.2 6.4 0.00 0.00 0.00 81 1013.3
20260507123049 1 273 3.2 6.4 0.00 0.00 0.00 81
20260507122541 1 273 3.2 6.4 0.00 0.00 0.00 82
20260507122055 1 273 1.6 4.8 0.00 0.00 0.00 82
20260507121608 0 273 3.2 6.4 0.00 0.00 0.00 82 1013.2
20260507121527 1 273 3.2 6.4 0.00 0.00 0.00 83
20260507121024 1 273 4.8 6.4 0.00 0.00 0.00 83
20260507120541 1 273 1.6 4.8 0.00 0.00 0.00 84
20260507120107 0 273 0.0 1.6 0.00 0.00 0.00 85 1013.1
20260507120015 1 273 0.0 1.6 0.00 0.00 0.00 85
20260507115554 1 273 0.0 1.6 0.00 0.00 0.00 86
20260507115048 0 273 0.0 0.0 0.00 0.00 0.00 86
20260507114547 0 273 0.0 3.2 0.00 0.00 0.00 86 1013.0
20260507114522 0 273 0.0 3.2 0.00 0.00 0.00 86
20260507114039 0 273 0.0 6.4 0.00 0.00 0.00 85
20260507113555 0 273 3.2 8.0 0.00 0.00 0.00 85
20260507113050 0 273 1.6 6.4 0.00 0.00 0.00 84 1013.1
20260507113029 0 273 1.6 6.4 0.00 0.00 0.00 84
20260507112546 0 273 3.2 6.4 0.00 0.00 0.00 84
20260507112019 0 273 4.8 6.4 0.00 0.00 0.00 83
20260507111554 0 273 3.2 6.4 0.00 0.00 0.00 83 1013.1
20260507111533 0 273 3.2 6.4 0.00 0.00 0.00 83
20260507111029 0 273 4.8 6.4 0.00 0.00 0.00 82
20260507110524 0 273 3.2 4.8 0.00 0.00 0.00 81
20260507110037 0 273 0.0 3.2 0.00 0.00 0.00 81
20260507110005 0 273 0.0 3.2 0.00 0.00 0.00 81 1013.0
20260507105534 0 273 1.6 4.8 0.00 0.00 0.00 80
20260507105050 0 273 3.2 4.8 0.00 0.00 0.00 80
20260507104520 0 273 0.0 4.8 0.00 0.00 0.00 79
20260507104506 0 273 0.0 4.8 0.00 0.00 0.00 79 1013.2
20260507104034 0 273 3.2 4.8 0.00 0.00 0.00 78
20260507103529 0 273 1.6 4.8 0.00 0.00 0.00 77
20260507103056 0 273 0.0 4.8 0.00 0.00 0.00 78 1013.2
20260507103024 0 273 1.6 4.8 0.00 0.00 0.00 78
20260507102520 0 273 1.6 4.8 0.00 0.00 0.00 79
20260507102037 0 273 1.6 4.8 0.00 0.00 0.00 80
20260507101614 0 273 1.6 4.8 0.00 0.00 0.00 81 1013.2
20260507101553 0 273 1.6 4.8 0.00 0.00 0.00 81
20260507101025 0 273 3.2 4.8 0.00 0.00 0.00 83
20260507100521 0 273 3.2 4.8 0.00 0.00 0.00 84
20260507100121 0 273 1.6 4.8 0.00 0.00 0.00 85 1013.2
20260507100036 0 273 3.2 4.8 0.00 0.00 0.00 86
20260507095550 0 273 3.2 4.8 0.00 0.00 0.00 87
20260507095025 0 273 0.0 1.6 0.00 0.00 0.00 87
20260507094628 -1 273 0.0 0.0 0.00 0.00 0.00 87 1013.2
20260507094520 -1 273 0.0 0.0 0.00 0.00 0.00 87
20260507094036 0 273 0.0 0.0 0.00 0.00 0.00 87
20260507093552 -1 273 0.0 0.0 0.00 0.00 0.00 87
20260507093120 -1 273 0.0 0.0 0.00 0.00 0.00 87 1013.2
20260507093026 -1 273 0.0 0.0 0.00 0.00 0.00 87
20260507092539 -1 273 0.0 0.0 0.00 0.00 0.00 87
20260507092055 0 273 0.0 0.0 0.00 0.00 0.00 87
20260507091530 0 273 0.0 0.0 0.00 0.00 0.00 86
20260507091506 -1 273 0.0 0.0 0.00 0.00 0.00 86 1013.3
20260507091024 0 273 0.0 0.0 0.00 0.00 0.00 86
20260507090521 0 273 0.0 0.0 0.00 0.00 0.00 86
20260507090106 0 273 0.0 0.0 0.00 0.00 0.00 86 1013.3
20260507090016 0 273 0.0 0.0 0.00 0.00 0.00 86
20260507085528 0 273 0.0 0.0 0.00 0.00 0.00 86
20260507085021 0 273 0.0 0.0 0.00 0.00 0.00 86
20260507084538 0 273 0.0 0.0 0.00 0.00 0.00 86 1013.3
20260507084516 0 273 0.0 0.0 0.00 0.00 0.00 86
20260507084041 0 273 0.0 0.0 0.00 0.00 0.00 86
20260507083516 0 273 0.0 1.6 0.00 0.00 0.00 86
20260507083032 0 273 0.0 4.8 0.00 0.00 0.00 87
20260507083004 0 273 0.0 4.8 0.00 0.00 0.00 87 1013.3
20260507082547 0 273 1.6 4.8 0.00 0.00 0.00 86
20260507082022 0 273 1.6 4.8 0.00 0.00 0.00 86
20260507081534 0 273 1.6 4.8 0.00 0.00 0.00 86 1013.4
20260507081518 0 273 1.6 4.8 0.00 0.00 0.00 85
20260507081031 0 273 3.2 4.8 0.00 0.00 0.00 85
20260507080525 0 273 0.0 3.2 0.00 0.00 0.00 85
20260507080100 0 273 0.0 3.2 0.00 0.00 0.00 85 1013.4
20260507080020 0 273 0.0 3.2 0.00 0.00 0.00 85
20260507075516 0 273 1.6 3.2 0.00 0.00 0.00 85
20260507075031 0 273 0.0 1.6 0.00 0.00 0.00 84
20260507074525 0 273 0.0 0.0 0.00 0.00 0.00 84
20260507074523 0 273 0.0 0.0 0.00 0.00 0.00 84 1013.3
20260507074021 0 273 0.0 0.0 0.00 0.00 0.00 84
20260507073516 0 273 0.0 0.0 0.00 0.00 0.00 84
20260507073101 0 273 0.0 0.0 0.00 0.00 0.00 84 1013.4
20260507073032 0 273 0.0 0.0 0.00 0.00 0.00 83
20260507072528 0 273 0.0 0.0 0.00 0.00 0.00 83
20260507072025 0 273 0.0 0.0 0.00 0.00 0.00 82
20260507071626 0 273 0.0 0.0 0.00 0.00 0.00 82 1013.4
20260507071542 0 273 0.0 0.0 0.00 0.00 0.00 82
20260507071031 0 273 0.0 0.0 0.00 0.00 0.00 82
20260507070523 0 273 0.0 0.0 0.00 0.00 0.00 82
20260507070041 0 273 0.0 0.0 0.00 0.00 0.00 82
20260507070012 0 273 0.0 0.0 0.00 0.00 0.00 82 1013.3
20260507065552 0 273 0.0 0.0 0.00 0.00 0.00 81
20260507065027 0 273 0.0 0.0 0.00 0.00 0.00 81
20260507064538 0 273 0.0 0.0 0.00 0.00 0.00 81 1013.4
20260507064520 0 273 0.0 0.0 0.00 0.00 0.00 81
20260507064034 1 273 0.0 0.0 0.00 0.00 0.00 80
20260507063529 1 273 0.0 0.0 0.00 0.00 0.00 80
20260507063100 1 273 0.0 0.0 0.00 0.00 0.00 80 1013.3
20260507063024 1 273 0.0 0.0 0.00 0.00 0.00 80
20260507062518 1 273 0.0 1.6 0.00 0.00 0.00 79
20260507062032 1 273 0.0 1.6 0.00 0.00 0.00 79
20260507061624 1 273 0.0 0.0 0.00 0.00 0.00 78 1013.4
20260507061548 1 273 0.0 0.0 0.00 0.00 0.00 78
20260507061022 2 273 0.0 1.6 0.00 0.00 0.00 77
20260507060540 2 273 0.0 1.6 0.00 0.00 0.00 76
20260507060111 1 273 0.0 1.6 0.00 0.00 0.00 75 1013.5
20260507060034 2 273 0.0 1.6 0.00 0.00 0.00 75
20260507055530 2 273 0.0 1.6 0.00 0.00 0.00 73
20260507055046 2 273 0.0 3.2 0.00 0.00 0.00 72
20260507054606 2 273 0.0 4.8 0.00 0.00 0.00 73 1013.5
20260507054520 2 273 0.0 4.8 0.00 0.00 0.00 72
20260507054032 2 273 3.2 4.8 0.00 0.00 0.00 70
20260507053528 2 273 0.0 0.0 0.00 0.00 0.00 68
20260507053121 2 273 0.0 0.0 0.00 0.00 0.00 68 1013.5
20260507053043 2 273 0.0 0.0 0.00 0.00 0.00 68
20260507052519 2 273 0.0 0.0 0.00 0.00 0.00 67
20260507052031 2 273 0.0 0.0 0.00 0.00 0.00 67
20260507051622 2 273 0.0 0.0 0.00 0.00 0.00 67 1013.5
20260507051524 2 273 0.0 0.0 0.00 0.00 0.00 67
20260507051039 2 273 0.0 0.0 0.00 0.00 0.00 67
20260507050549 2 273 0.0 0.0 0.00 0.00 0.00 66
20260507050023 2 273 0.0 0.0 0.00 0.00 0.00 66
20260507050009 2 273 0.0 0.0 0.00 0.00 0.00 66 1013.6
20260507045528 2 273 0.0 0.0 0.00 0.00 0.00 65
20260507045025 2 273 0.0 0.0 0.00 0.00 0.00 65
20260507044544 2 273 0.0 0.0 0.00 0.00 0.00 65 1013.8
20260507044519 2 273 0.0 0.0 0.00 0.00 0.00 65
20260507044035 3 273 0.0 0.0 0.00 0.00 0.00 65
20260507043552 3 273 0.0 0.0 0.00 0.00 0.00 64
20260507043045 3 273 0.0 0.0 0.00 0.00 0.00 64 1013.8
20260507043024 3 273 0.0 0.0 0.00 0.00 0.00 64
20260507042519 3 273 0.0 0.0 0.00 0.00 0.00 64
20260507042035 3 273 0.0 0.0 0.00 0.00 0.00 64
20260507041611 3 273 0.0 0.0 0.00 0.00 0.00 63 1014.0
20260507041550 3 273 0.0 0.0 0.00 0.00 0.00 63
20260507041046 3 273 0.0 0.0 0.00 0.00 0.00 63
20260507040518 3 273 0.0 0.0 0.00 0.00 0.00 62
20260507040046 3 273 0.0 0.0 0.00 0.00 0.00 62 1014.1
20260507040032 3 273 0.0 0.0 0.00 0.00 0.00 62
20260507035546 4 273 0.0 0.0 0.00 0.00 0.00 62
20260507035038 4 273 0.0 0.0 0.00 0.00 0.00 61
20260507034533 4 273 0.0 0.0 0.00 0.00 0.00 61
20260507034505 4 273 0.0 0.0 0.00 0.00 0.00 61 1014.2
20260507034028 4 273 0.0 0.0 0.00 0.00 0.00 61
20260507033524 5 273 0.0 0.0 0.00 0.00 0.00 60
20260507033056 4 273 0.0 3.2 0.00 0.00 0.00 60 1014.3
20260507033020 5 273 0.0 3.2 0.00 0.00 0.00 60
20260507032516 5 273 0.0 4.8 0.00 0.00 0.00 60
20260507032028 5 273 1.6 4.8 0.00 0.00 0.00 60
20260507031620 5 273 1.6 4.8 0.00 0.00 0.00 58 1014.4
20260507031543 5 273 1.6 4.8 0.00 0.00 0.00 58
20260507031017 5 273 3.2 4.8 0.00 0.00 0.00 59
20260507030529 5 273 0.0 3.2 0.00 0.00 0.00 60
20260507030025 5 273 3.2 4.8 0.00 0.00 0.00 59
20260507030013 5 273 1.6 6.4 0.00 0.00 0.00 58 1014.5
20260507025520 6 273 3.2 6.4 0.00 0.00 0.00 57
20260507025016 6 273 4.8 6.4 0.00 0.00 0.00 55
20260507024559 6 273 4.8 6.4 0.00 0.00 0.00 54 1014.5
20260507024530 6 273 4.8 6.4 0.00 0.00 0.00 54
20260507024046 6 273 1.6 4.8 0.00 0.00 0.00 54
20260507023521 6 273 3.2 6.4 0.00 0.00 0.00 53
20260507023057 6 273 1.6 6.4 0.00 0.00 0.00 52 1014.5
20260507023017 6 273 3.2 6.4 0.00 0.00 0.00 52
20260507022534 6 273 4.8 6.4 0.00 0.00 0.00 51
20260507022029 6 273 4.8 8.0 0.00 0.00 0.00 51
20260507021523 6 273 4.8 9.7 0.00 0.00 0.00 50
20260507021506 6 273 3.2 9.7 0.00 0.00 0.00 50 1014.6
20260507021018 7 273 6.4 9.7 0.00 0.00 0.00 47
20260507020531 7 273 6.4 9.7 0.00 0.00 0.00 48
20260507020057 7 273 6.4 9.7 0.00 0.00 0.00 47 1014.7
20260507020028 7 273 8.0 9.7 0.00 0.00 0.00 47
20260507015522 7 273 6.4 9.7 0.00 0.00 0.00 47
20260507015038 7 273 6.4 12.9 0.00 0.00 0.00 47
20260507014600 7 273 4.8 12.9 0.00 0.00 0.00 46 1014.8
20260507014532 7 273 4.8 12.9 0.00 0.00 0.00 45
20260507014028 7 256 8.0 12.9 0.00 0.00 0.00 44
20260507013522 7 279 4.8 9.7 0.00 0.00 0.00 47
20260507013034 7 279 4.8 9.7 0.00 0.00 0.00 47 1014.7
20260507013018 7 279 6.4 9.7 0.00 0.00 0.00 46
20260507012515 7 280 6.4 11.3 0.00 0.00 0.00 46
20260507012032 7 280 8.0 11.3 0.00 0.00 0.00 45
20260507011602 7 281 6.4 11.3 0.00 0.00 0.00 45 1014.8
20260507011547 7 281 8.0 11.3 0.00 0.00 0.00 45
20260507011023 7 281 8.0 11.3 0.00 0.00 0.00 44
20260507010517 7 287 6.4 11.3 0.00 0.00 0.00 43
20260507010116 7 287 4.8 12.9 0.00 0.00 0.00 42 1014.9
20260507010031 7 287 6.4 12.9 0.00 0.00 0.00 42
20260507005527 7 287 9.7 12.9 0.00 0.00 0.00 42
20260507005022 7 284 8.0 11.3 0.00 0.00 0.00 41
20260507004533 7 284 6.4 12.9 0.00 0.00 0.00 41 1014.9
20260507004519 7 284 8.0 12.9 0.00 0.00 0.00 41
20260507004015 7 284 9.7 19.3 0.00 0.00 0.00 41
20260507003531 7 287 16.1 19.3 0.00 0.00 0.00 39
20260507003056 7 270 9.7 19.3 0.00 0.00 0.00 40 1015.0
20260507003027 7 279 9.7 19.3 0.00 0.00 0.00 40
20260507002522 8 277 9.7 19.3 0.00 0.00 0.00 39
20260507002019 8 275 14.5 19.3 0.00 0.00 0.00 38
20260507001529 7 297 4.8 14.5 0.00 0.00 0.00 39 1015.1
20260507001515 8 277 6.4 16.1 0.00 0.00 0.00 38
20260507001100 8 25 4.8 16.1 0.00 0.00 0.00 39
20260507000550 8 240 9.7 14.5 0.00 0.00 0.00 39
20260507000107 7 260 4.8 8.0 0.00 0.00 0.00 40 1015.1
20260507000023 8 320 4.8 8.0 0.00 0.00 0.00 39
20260506235516 7 69 1.6 8.0 0.00 0.00 0.00 39
20260506235032 8 34 4.8 11.3 0.00 0.00 0.00 39
20260506234542 8 24 4.8 11.3 0.00 0.00 0.00 39 1015.3
20260506234527 8 24 4.8 11.3 0.00 0.00 0.00 39
20260506234021 8 312 4.8 9.7 0.00 0.00 0.00 40
20260506233517 8 313 3.2 8.0 0.00 0.00 0.00 40
20260506233109 7 313 4.8 8.0 0.00 0.00 0.00 40 1015.3
20260506233033 8 316 6.4 8.0 0.00 0.00 0.00 40
20260506232549 7 316 3.2 9.7 0.00 0.00 0.00 40
20260506232025 7 316 1.6 9.7 0.00 0.00 0.00 40
20260506231604 7 316 4.8 8.0 0.00 0.00 0.00 41 1015.5
20260506231539 7 316 4.8 8.0 0.00 0.00 0.00 41
20260506231055 7 316 4.8 9.7 0.00 0.00 0.00 41
20260506230528 7 316 4.8 9.7 0.00 0.00 0.00 41
20260506230109 7 316 4.8 11.3 0.00 0.00 0.00 42 1015.6
20260506230023 7 316 6.4 11.3 0.00 0.00 0.00 42
20260506225519 7 319 4.8 14.5 0.00 0.00 0.00 42
20260506225035 7 318 8.0 14.5 0.00 0.00 0.00 41
20260506224542 7 295 6.4 14.5 0.00 0.00 0.00 42 1015.7
20260506224528 7 295 8.0 14.5 0.00 0.00 0.00 41
20260506224022 7 298 8.0 17.7 0.00 0.00 0.00 41
20260506223516 7 312 9.7 17.7 0.00 0.00 0.00 42
20260506223103 7 283 11.3 19.3 0.00 0.00 0.00 42 1015.9
20260506223030 7 279 11.3 19.3 0.00 0.00 0.00 42
20260506222524 7 276 11.3 19.3 0.00 0.00 0.00 41
20260506222020 7 273 9.7 20.9 0.00 0.00 0.00 41
20260506221533 7 278 11.3 20.9 0.00 0.00 0.00 42
20260506221504 7 259 6.4 12.9 0.00 0.00 0.00 42 1016.1
20260506221049 7 284 8.0 11.3 0.00 0.00 0.00 43
20260506220523 7 273 6.4 9.7 0.00 0.00 0.00 43
20260506220129 6 273 4.8 11.3 0.00 0.00 0.00 44 1016.2
20260506220038 6 273 6.4 14.5 0.00 0.00 0.00 44
20260506215532 6 273 8.0 19.3 0.00 0.00 0.00 44
20260506215029 7 281 9.7 19.3 0.00 0.00 0.00 44
20260506214538 6 273 12.9 17.7 0.00 0.00 0.00 44 1016.5
20260506214523 7 277 12.9 17.7 0.00 0.00 0.00 44
20260506214018 6 298 14.5 20.9 0.00 0.00 0.00 45
20260506213533 7 303 14.5 22.5 0.00 0.00 0.00 43
20260506213057 7 279 14.5 22.5 0.00 0.00 0.00 43 1016.7
20260506213026 7 279 14.5 22.5 0.00 0.00 0.00 43
20260506212536 7 247 11.3 27.4 0.00 0.00 0.00 45
20260506212028 7 291 14.5 27.4 0.00 0.00 0.00 45
20260506211556 6 290 16.1 27.4 0.00 0.00 0.00 44 1017.0
20260506211523 6 303 16.1 27.4 0.00 0.00 0.00 44
20260506211038 6 287 17.7 25.7 0.00 0.00 0.00 46
20260506210533 6 286 19.3 25.7 0.00 0.00 0.00 46
20260506210047 6 286 11.3 27.4 0.00 0.00 0.00 45
20260506205519 6 284 16.1 25.7 0.00 0.00 0.00 45
20260506205035 6 273 11.3 22.5 0.00 0.00 0.00 46
20260506204617 6 279 14.5 24.1 0.00 0.00 0.00 45 1017.2
20260506204549 6 281 16.1 24.1 0.00 0.00 0.00 45
20260506204024 6 290 14.5 24.1 0.00 0.00 0.00 46
20260506203538 6 279 14.5 22.5 0.00 0.00 0.00 47
20260506203034 6 271 12.9 24.1 0.00 0.00 0.00 46
20260506203013 6 257 11.3 24.1 0.00 0.00 0.00 46 1017.4
20260506202549 6 284 14.5 24.1 0.00 0.00 0.00 46
20260506202022 6 279 14.5 22.5 0.00 0.00 0.00 47
20260506201540 6 261 9.7 22.5 0.00 0.00 0.00 47 1017.5
20260506201518 6 261 9.7 22.5 0.00 0.00 0.00 47
20260506201034 6 290 17.7 22.5 0.00 0.00 0.00 46
20260506200547 6 306 12.9 19.3 0.00 0.00 0.00 46
20260506200042 6 321 11.3 19.3 0.00 0.00 0.00 49 1017.6
20260506200020 6 323 12.9 19.3 0.00 0.00 0.00 49
20260506195515 6 298 9.7 24.1 0.00 0.00 0.00 48
20260506195028 6 273 16.1 24.1 0.00 0.00 0.00 47
20260506194604 6 262 12.9 22.5 0.00 0.00 0.00 48 1017.8
20260506194522 6 267 12.9 22.5 0.00 0.00 0.00 47
20260506194015 6 284 11.3 22.5 0.00 0.00 0.00 47
20260506193555 6 290 9.7 25.7 0.00 0.00 0.00 48
20260506193110 5 279 14.5 25.7 0.00 0.00 0.00 48 1018.1
20260506193048 6 331 14.5 25.7 0.00 0.00 0.00 48
20260506192523 6 279 16.1 24.1 0.00 0.00 0.00 50
20260506192019 5 274 14.5 27.4 0.00 0.00 0.00 48
20260506191615 5 284 16.1 27.4 0.00 0.00 0.00 48 1018.1
20260506191516 5 292 16.1 27.4 0.00 0.00 0.00 48
20260506191029 5 319 12.9 22.5 0.00 0.00 0.00 48
20260506190545 5 281 14.5 24.1 0.00 0.00 0.00 50
20260506190114 5 259 14.5 27.4 0.00 0.00 0.00 49 1018.2
20260506190019 5 281 16.1 27.4 0.00 0.00 0.00 50
20260506185517 5 275 16.1 29.0 0.00 0.00 0.00 50
20260506185032 5 281 17.7 29.0 0.00 0.00 0.00 49
20260506184545 5 263 16.1 25.7 0.00 0.00 0.00 48 1018.4
20260506184528 5 299 16.1 24.1 0.00 0.00 0.00 48
20260506184021 5 282 14.5 24.1 0.00 0.00 0.00 49
20260506183515 5 258 16.1 30.6 0.00 0.00 0.00 48
20260506183109 5 285 19.3 30.6 0.00 0.00 0.00 49 1018.5
20260506183031 5 259 19.3 29.0 0.00 0.00 0.00 49
20260506182544 5 275 12.9 24.1 0.00 0.00 0.00 48
20260506182020 5 254 16.1 29.0 0.00 0.00 0.00 48
20260506181606 5 279 17.7 29.0 0.00 0.00 0.00 48 1018.7
20260506181516 5 290 19.3 29.0 0.00 0.00 0.00 49
20260506181033 5 270 14.5 25.7 0.00 0.00 0.00 49
20260506180529 5 261 12.9 24.1 0.00 0.00 0.00 47
20260506180025 5 268 12.9 22.5 0.00 0.00 0.00 48
20260506180011 5 261 12.9 22.5 0.00 0.00 0.00 48 1018.7
20260506175541 5 315 14.5 22.5 0.00 0.00 0.00 49
20260506175033 5 266 17.7 30.6 0.00 0.00 0.00 48
20260506174626 4 286 14.5 30.6 0.00 0.00 0.00 49 1018.8
20260506174548 5 275 14.5 30.6 0.00 0.00 0.00 49
20260506174024 5 277 12.9 29.0 0.00 0.00 0.00 49
20260506173521 5 294 14.5 29.0 0.00 0.00 0.00 48
20260506173034 4 282 14.5 32.2 0.00 0.00 0.00 50 1019.0
20260506173014 4 281 14.5 32.2 0.00 0.00 0.00 49
20260506172529 4 277 19.3 32.2 0.00 0.00 0.00 48
20260506172022 4 277 14.5 25.7 0.00 0.00 0.00 49
20260506171601 4 280 16.1 27.4 0.00 0.00 0.00 49 1019.1
20260506171517 4 290 17.7 27.4 0.00 0.00 0.00 49
20260506171058 4 269 17.7 29.0 0.00 0.00 0.00 51
20260506170553 4 290 20.9 29.0 0.00 0.00 0.00 52
20260506170049 3 284 9.7 24.1 0.00 0.00 0.00 51 1019.3
20260506170027 3 275 11.3 24.1 0.00 0.00 0.00 51
20260506165542 3 271 19.3 27.4 0.00 0.00 0.00 52
20260506165036 3 281 16.1 27.4 0.00 0.00 0.00 53
20260506164531 3 276 17.7 30.6 0.00 0.00 0.00 54
20260506164503 3 277 14.5 30.6 0.00 0.00 0.00 54 1019.5
20260506164024 3 292 17.7 30.6 0.00 0.00 0.00 54
20260506163520 3 275 16.1 29.0 0.00 0.00 0.00 54
20260506163052 3 285 16.1 29.0 0.00 0.00 0.00 54 1019.7
20260506163016 3 283 17.7 29.0 0.00 0.00 0.00 54
20260506162531 3 261 12.9 24.1 0.00 0.00 0.00 54
20260506162046 3 290 14.5 22.5 0.00 0.00 0.00 55
20260506161547 3 263 14.5 19.3 0.00 0.00 0.00 55 1019.8
20260506161520 3 284 16.1 19.3 0.00 0.00 0.00 55
20260506161036 3 279 9.7 24.1 0.00 0.00 0.00 55
20260506160529 3 286 17.7 25.7 0.00 0.00 0.00 54
20260506160046 3 290 11.3 24.1 0.00 0.00 0.00 55 1019.9
20260506160024 3 266 11.3 24.1 0.00 0.00 0.00 55